Regional Weather Roundup
Issued by NWS Newport/Morehead, NC

Home | Current Version | Previous Version | Text Only | Print | Product List | Glossary On
Versions: 1 2 3 4 5 6 7 8 9 10 11 12 13 14 15 16 17 18 19 20 21 22 23 24 25 26 27 28 29 30 31 32 33 34 35 36 37 38 39 40 41 42 43 44 45 46 47 48 49 50
000
ASUS42 KMHX 231513
RWRMHX
WEATHER ROUNDUP FOR EASTERN NORTH CAROLINA
NATIONAL WEATHER SERVICE NEWPORT/MOREHEAD CITY NC
1100 AM EDT SAT JUL 23 2016

NOTE: "FAIR" INDICATES FEW OR NO CLOUDS BELOW 12,000 FEET
WITH NO SIGNIFICANT WEATHER AND/OR OBSTRUCTIONS TO VISIBILITY

NCZ015>017-031-032-045>047-102-103-231600-
NORTH COAST

CITY           SKY/WX    TMP DP  RH WIND       PRES   REMARKS
EDENTON        SUNNY     86  74  66 SW5       30.00S
ELIZABETH CITY SUNNY     86  76  71 S5        29.98F
KITTY HAWK     SUNNY     89  72  57 SW3       29.99S
MANTEO           N/A     85  75  71 W6        30.00S

$$

NCZ045>047-081-094-103-104-231600-
CENTRAL COAST

CITY           SKY/WX    TMP DP  RH WIND       PRES   REMARKS
FRISCO         SUNNY     86  77  74 SW7       30.02S

$$

NCZ095-097-098-100-101-231600-
SOUTHERN COAST

CITY           SKY/WX    TMP DP  RH WIND       PRES   REMARKS
BEAUFORT       PTSUNNY   86  77  74 SW12      30.03R
CEDAR ISLAND   NOT AVBL
JACKSONVILLE   MOSUNNY   86  71  60 SW6       30.02R
PINEY ISLAND   NOT AVBL
WILMINGTON     CLOUDY    83  73  72 S5        30.04R


$$

NCZ011>013-027>030-043-044-078>080-089-090>093-098-231600-
COASTAL PLAIN

CITY           SKY/WX    TMP DP  RH WIND       PRES   REMARKS
AHOSKIE        SUNNY     84  75  74 CALM      30.00R
CLINTON        MOSUNNY   84  78  82 SW3       30.02R
ELIZABETHTOWN  SUNNY     85  74  70 W6        30.02R
GOLDSBORO      MOSUNNY   87  80  81 S8        30.00R HX 102
GREENVILLE     SUNNY     88  77  70 CALM      30.02R HX 100
HAVELOCK       MOSUNNY   88  74  63 SW14      30.03R
KENANSVILLE    PTSUNNY   83  74  72 CALM      30.02R
KINSTON        MOSUNNY   88  75  66 S6        30.02R
NEW BERN       MOSUNNY   87  74  64 SW9       30.03R
RICHLANDS      MOSUNNY   86  76  71 VRB6      30.03R
ROCKY MOUNT    SUNNY     86  77  74 CALM      30.00S
WASHINGTON     SUNNY     85  75  71 SW5       30.01R
WHITEVILLE     MOSUNNY   83  74  74 S9        30.03R

$$

AMZ130-135-150-152-154-156-158-170-250-252-270-ANZ085-086-088-633-658-670-231600-
MARINE OBSERVATIONS

STATION/POSITION TIME  TEMP    WIND        PRES    WAVE   SWELL
                       AIR SEA DIR/SP/G            HT/PER HT/PER
                 (UTC) (F)     (DEG/KT/KT) (MB)    (FT/S) (FT/S)
CHESAPEAKE LIGHT NOT AVBL
64 E VA BEACH    1450   80 80  230/ 14/ 16 1015.0    4/ 5   2/10
DUCK             1400   82 60  230/ 10/ 13 1014.9
2 E DUCK         1411      68                N/A     2/ 9
OREGON INLET     1400   83 82  230/ 12/ 14 1015.7
13E OREGON INLT  1400      82                N/A     2/ 8   2/ 8
HATTERAS CG      1400   84 82  220/  7/ 10 1016.1
DIAMOND BUOY     1450   84 86  220/ 10/ 12 1016.8    2/ 8   2/ 8
CAPE LOOKOUT     1500   85     230/  7/ 10 1016.7
BEAUFORT LAB     1400   85 82  240/  5/  8 1016.0
30 SE NEW RVR IN 1408   85 85  220/ 10/ 12 1016.8
30 SE NEW RVR IN 1425      85                N/A     2/ 8
27 SE WRIGHTSVLE 1408   83 84  250/ 10/ 12 1017.1
5 SE WRIGHTSVLE  1408   80 84  240/  8/ 10 1017.6
225 S CAPE HAT   1450   82 86   50/  2/  4 1017.4    2/ 8   2/ 8
41 SE CHARLESTON 1450   81 86  310/  4/  4 1017.2    2/ 8   2/ 8

$$




USA.gov is the U.S. government's official web portal to all federal, state and local government web resources and services.